FW8369 Weather Reports


Display with metric or nautical units.
time (UTC)temp
F
wind
direction
speed
MPH
gust
MPH
rain 1hr
in
rain 24hr
in
rain mn
in
humidity
%
barometer
mb
20260901005904 81 337 2.0 3.0 0.00 1.09 0.00 92 998.3
20260901005403 81 355 3.0 5.0 0.00 1.09 0.00 92 998.3
20260901004904 81 341 2.0 3.0 0.00 1.09 0.00 92 998.3
20260901004404 81 34 0.0 3.0 0.00 1.09 0.00 92 998.2
20260901003904 81 327 1.0 3.0 0.00 1.09 0.00 91 998.1
20260901003404 82 328 1.0 3.0 0.00 1.09 0.00 91 998.2
20260901002904 82 316 0.0 2.0 0.00 1.09 0.00 91 998.2
20260901002404 82 13 0.0 2.0 0.00 1.09 0.00 90 998.1
20260901001904 82 224 0.0 2.0 0.00 1.09 0.00 89 998.1
20260901001404 82 10 0.0 1.0 0.00 1.09 0.00 89 998.1
20260901000904 82 13 1.0 2.0 0.00 1.09 0.00 89 998.0
20260901000405 82 344 1.0 3.0 0.00 1.09 0.00 89 998.0
20260831235904 82 357 2.0 6.0 0.00 1.09 0.00 88 997.9
20260831235404 83 34 1.0 3.0 0.00 1.09 0.00 88 997.8
20260831234903 82 347 0.0 3.0 0.00 1.09 0.00 88 997.9
20260831234404 83 45 1.0 3.0 0.00 1.09 0.00 88 997.9
20260831233904 82 335 0.0 1.0 0.00 1.09 0.00 88 997.8
20260831233404 83 336 0.0 3.0 0.00 1.09 0.00 88 997.8
20260831232904 83 352 0.0 1.0 0.00 1.09 0.00 87 997.8
20260831231904 83 342 2.0 5.0 0.00 1.09 0.00 87 997.6
20260831231404 83 37 0.0 3.0 0.00 1.09 0.00 87 997.6
20260831230904 83 336 2.0 3.0 0.00 1.09 0.00 87 997.5
20260831230404 83 303 0.0 2.0 0.00 1.09 0.00 87 997.4
20260831225404 83 314 0.0 1.0 0.00 1.09 0.00 87 997.4
20260831224904 83 335 0.0 1.0 0.00 1.09 0.00 87 997.3
20260831224404 83 24 1.0 3.0 0.00 1.09 0.00 87 997.3
20260831223403 82 323 0.0 1.0 0.00 1.09 0.00 87 997.2
20260831222904 82 325 0.0 2.0 0.00 1.09 0.00 87 997.2
20260831222404 82 320 1.0 3.0 0.00 1.09 0.00 87 997.2
20260831221904 82 305 0.0 0.0 0.00 1.09 0.00 88 997.1
20260831221404 82 260 1.0 3.0 0.00 1.09 0.00 88 997.1
20260831220904 82 334 2.0 3.0 0.00 1.09 0.00 88 997.1
20260831220404 82 333 1.0 3.0 0.00 1.09 0.00 89 997.1
20260831215404 82 8 1.0 3.0 0.00 1.09 0.00 89 997.2
20260831214904 82 344 2.0 3.0 0.00 1.09 0.00 89 997.2
20260831214405 82 329 0.0 3.0 0.00 1.09 0.00 89 997.2
20260831213904 82 30 2.0 5.0 0.00 1.09 0.00 88 997.1
20260831213404 82 311 1.0 3.0 0.00 1.09 0.00 88 997.1
20260831212904 82 0 2.0 3.0 0.00 1.09 0.00 87 997.0
20260831212404 82 319 1.0 2.0 0.00 1.09 0.00 87 996.8
20260831211403 82 315 1.0 2.0 0.00 1.09 0.00 87 996.8
20260831210404 82 55 1.0 5.0 0.00 1.09 0.00 88 996.8
20260831205904 82 344 2.0 2.0 0.00 1.09 0.00 88 996.8
20260831205404 82 40 1.0 3.0 0.00 1.09 0.00 89 996.8
20260831204904 82 328 0.0 2.0 0.00 1.09 0.00 89 996.8
20260831204404 82 354 1.0 5.0 0.00 1.09 0.00 89 996.7
20260831203904 82 327 1.0 2.0 0.00 1.09 0.00 89 996.6
20260831203403 82 326 1.0 3.0 0.00 1.09 0.00 89 996.7
20260831202904 82 358 2.0 5.0 0.00 1.09 0.00 89 996.7
20260831202404 82 349 2.0 3.0 0.00 1.09 0.00 89 996.6
20260831201904 82 7 2.0 5.0 0.00 1.09 0.00 89 996.6
20260831201403 82 17 2.0 5.0 0.00 1.09 0.00 89 996.6
20260831200904 82 353 1.0 3.0 0.00 1.09 0.00 89 996.7
20260831200404 82 31 1.0 3.0 0.00 1.09 0.00 89 996.7
20260831195904 82 44 2.0 3.0 0.00 1.09 0.00 88 996.8
20260831195405 83 323 0.0 2.0 0.00 1.09 0.00 88 996.9
20260831194903 83 331 1.0 3.0 0.00 1.09 0.00 88 997.0
20260831193904 83 306 0.0 2.0 0.00 1.09 0.00 87 997.0
20260831193404 83 304 0.0 3.0 0.00 1.09 0.00 87 997.1
20260831192904 83 329 0.0 1.0 0.00 1.09 0.00 87 997.1
20260831192403 83 13 0.0 2.0 0.00 1.09 0.00 87 997.2
20260831191903 83 56 0.0 0.0 0.00 1.09 0.00 87 997.1
20260831191404 83 64 2.0 3.0 0.00 1.09 0.00 87 997.2
20260831190905 83 45 1.0 3.0 0.00 1.09 0.00 87 997.2
20260831190403 83 8 1.0 3.0 0.00 1.09 0.00 87 997.2
20260831185904 83 5 0.0 2.0 0.00 1.09 0.00 87 997.2
20260831184404 83 329 0.0 1.0 0.00 1.09 0.00 87 997.3
20260831183904 83 22 2.0 3.0 0.00 1.09 0.00 87 997.4
20260831183404 83 312 0.0 1.0 0.00 1.09 0.00 88 997.4
20260831182904 83 339 1.0 7.0 0.00 1.09 0.00 87 997.4
20260831181904 83 348 0.0 1.0 0.00 1.09 0.00 88 997.5
20260831181404 82 44 0.0 3.0 0.00 1.09 0.00 88 997.5
20260831180904 82 325 1.0 2.0 0.00 1.09 0.00 88 997.6
20260831180404 82 332 0.0 2.0 0.00 1.09 0.00 89 997.7
20260831175404 82 341 1.0 2.0 0.00 1.09 0.00 89 997.8
20260831174904 82 345 1.0 3.0 0.00 1.09 0.00 88 997.9
20260831174403 83 336 1.0 3.0 0.00 1.09 0.00 89 997.8
20260831172903 82 354 0.0 3.0 0.00 1.09 0.00 90 998.0
20260831172404 82 329 0.0 2.0 0.00 1.09 0.00 90 998.0
20260831171904 82 327 1.0 3.0 0.00 1.09 0.00 90 998.0
20260831171404 82 323 0.0 0.0 0.00 1.09 0.00 91 998.1
20260831170903 82 323 0.0 0.0 0.00 1.09 0.00 91 998.1
20260831170404 82 323 0.0 2.0 0.00 1.09 0.00 91 998.1
20260831165903 82 351 1.0 3.0 0.00 1.09 0.00 91 998.1
20260831165403 82 331 0.0 2.0 0.00 1.09 0.00 91 998.1
20260831164904 82 329 0.0 2.0 0.00 1.09 0.00 91 998.1
20260831164404 82 330 0.0 1.0 0.00 1.09 0.00 92 998.2
20260831163903 82 344 0.0 3.0 0.00 1.09 0.00 92 998.2
20260831162904 81 343 0.0 1.0 0.00 1.09 0.00 92 998.2
20260831162404 82 346 1.0 3.0 0.00 1.09 0.00 92 998.3
20260831161904 82 338 0.0 2.0 0.00 1.09 0.00 92 998.4
20260831161404 82 341 0.0 2.0 0.00 1.09 0.00 92 998.4
20260831160904 82 341 1.0 3.0 0.00 1.09 0.00 92 998.5
20260831160404 82 332 1.0 2.0 0.00 1.09 0.00 92 998.5
20260831155904 82 338 0.0 2.0 0.00 1.09 1.09 92 998.5
20260831155403 82 354 1.0 3.0 0.00 1.09 1.09 91 998.5
20260831154904 82 4 1.0 2.0 0.00 1.09 1.09 91 998.5
20260831154404 82 317 0.0 2.0 0.00 1.09 1.09 91 998.5
20260831153904 82 295 0.0 3.0 0.00 1.09 1.09 91 998.5
20260831152904 82 345 1.0 2.0 0.00 1.09 1.09 91 998.6
20260831152404 82 357 1.0 3.0 0.00 1.09 1.09 92 998.7
20260831151904 82 313 0.0 2.0 0.00 1.09 1.09 92 998.7
20260831151404 82 336 0.0 2.0 0.00 1.09 1.09 92 998.8
20260831150904 82 354 0.0 2.0 0.00 1.09 1.09 92 998.7
20260831150404 82 15 2.0 3.0 0.00 1.09 1.09 92 998.8
20260831145903 82 325 0.0 2.0 0.00 1.09 1.09 92 998.8
20260831145404 82 339 0.0 3.0 0.00 1.09 1.09 92 998.8
20260831144903 82 320 1.0 2.0 0.00 1.09 1.09 93 998.8
20260831144404 82 324 0.0 1.0 0.00 1.09 1.09 93 998.7
20260831143904 82 330 0.0 1.0 0.00 1.09 1.09 93 998.6
20260831143404 82 341 1.0 2.0 0.00 1.09 1.09 93 998.6
20260831142904 82 325 0.0 1.0 0.00 1.09 1.09 94 998.6
20260831142404 82 52 1.0 2.0 0.00 1.09 1.09 93 998.6
20260831141904 82 339 0.0 1.0 0.00 1.09 1.09 93 998.6
20260831140904 82 344 2.0 3.0 0.00 1.09 1.09 93 998.6
20260831140403 82 353 0.0 2.0 0.01 1.09 1.09 93 998.5
20260831135904 82 24 1.0 3.0 0.01 1.09 1.09 93 998.5
20260831135404 82 333 0.0 1.0 0.02 1.09 1.09 93 998.5
20260831134904 81 343 1.0 2.0 0.02 1.09 1.09 93 998.5
20260831134403 82 323 0.0 1.0 0.03 1.09 1.09 94 998.6
20260831133904 82 323 0.0 1.0 0.03 1.09 1.09 94 998.5
20260831133403 82 346 0.0 3.0 0.03 1.09 1.09 94 998.5
20260831131904 82 316 0.0 1.0 0.03 1.10 1.09 93 998.4
20260831131404 82 316 0.0 1.0 0.03 1.10 1.09 93 998.4
20260831130903 82 316 0.0 0.0 0.03 1.10 1.09 93 998.3
20260831130404 82 316 0.0 2.0 0.02 1.09 1.08 92 998.3
20260831125904 82 344 1.0 3.0 0.02 1.09 1.08 92 998.3
20260831125404 83 44 1.0 2.0 0.01 1.08 1.07 92 998.2
20260831124904 83 342 0.0 2.0 0.01 1.08 1.07 91 998.3
20260831124404 83 339 0.0 2.0 0.00 1.07 1.06 91 998.3
20260831123904 83 48 1.0 2.0 0.00 1.07 1.06 90 998.2
20260831123404 83 356 1.0 2.0 0.00 1.07 1.06 90 998.2
20260831122904 83 349 1.0 2.0 0.00 1.07 1.06 90 998.2
20260831122403 83 349 0.0 2.0 0.00 1.07 1.06 91 998.1
20260831121404 83 349 0.0 3.0 0.00 1.07 1.06 90 998.3
20260831120904 83 27 1.0 3.0 0.00 1.07 1.06 89 998.2
20260831120404 83 342 0.0 2.0 0.00 1.07 1.06 89 998.2
20260831115904 83 354 1.0 2.0 0.00 1.07 1.06 89 998.2
20260831115404 83 342 1.0 2.0 0.00 1.07 1.06 89 998.3
20260831114904 83 341 0.0 1.0 0.00 1.07 1.06 89 998.3
20260831114404 83 356 1.0 3.0 0.00 1.07 1.06 89 998.1
20260831113904 83 0 0.0 1.0 0.00 1.07 1.06 89 998.1
20260831113404 83 323 0.0 0.0 0.00 1.07 1.06 90 998.1
20260831112904 83 324 0.0 0.0 0.00 1.07 1.06 89 998.1
20260831111904 83 326 0.0 0.0 0.00 1.07 1.06 89 997.8
20260831111404 83 327 0.0 1.0 0.00 1.07 1.06 89 997.8
20260831110904 83 329 0.0 1.0 0.00 1.07 1.06 90 997.7
20260831110404 83 331 0.0 1.0 0.00 1.07 1.06 90 997.8
20260831105903 83 348 1.0 2.0 0.00 1.07 1.06 90 997.9
20260831105404 83 349 0.0 2.0 0.00 1.07 1.06 90 997.9
20260831104904 83 330 0.0 2.0 0.00 1.07 1.06 91 997.8
20260831104405 83 329 0.0 1.0 0.00 1.07 1.06 91 997.7
20260831103904 82 330 0.0 1.0 0.00 1.07 1.06 91 997.7
20260831103404 82 332 0.0 2.0 0.00 1.07 1.06 91 997.6
20260831102904 82 341 1.0 2.0 0.00 1.07 1.06 91 997.6
20260831102403 83 340 1.0 2.0 0.01 1.07 1.06 91 997.5
20260831101904 82 334 0.0 1.0 0.01 1.07 1.06 91 997.4
20260831101403 83 340 1.0 2.0 0.01 1.07 1.06 90 997.4
20260831100903 83 333 0.0 2.0 0.01 1.07 1.06 90 997.3
20260831100404 82 338 0.0 2.0 0.01 1.07 1.06 90 997.3
20260831095904 83 328 1.0 2.0 0.01 1.07 1.06 90 997.3
20260831095404 83 332 1.0 2.0 0.01 1.07 1.06 90 997.2
20260831094904 83 347 0.0 1.0 0.01 1.07 1.06 90 997.1
20260831094403 83 0 1.0 2.0 0.01 1.07 1.06 89 997.0
20260831093904 83 316 0.0 1.0 0.01 1.07 1.06 89 996.9
20260831092403 84 357 0.0 2.0 0.00 1.06 1.05 89 996.9
20260831091404 84 323 0.0 3.0 0.00 1.06 1.05 89 996.9
20260831090904 84 310 0.0 2.0 0.00 1.06 1.05 89 996.9
20260831090404 83 309 1.0 3.0 0.00 1.06 1.05 89 996.8
20260831085404 83 320 0.0 2.0 0.00 1.06 1.05 90 996.8
20260831084904 82 334 1.0 2.0 0.00 1.06 1.05 91 996.8
20260831084404 82 337 0.0 2.0 0.00 1.06 1.05 91 996.9
20260831083904 82 337 1.0 3.0 0.00 1.06 1.05 91 996.8
20260831083404 82 335 1.0 3.0 0.00 1.06 1.05 92 996.9
20260831082903 82 55 2.0 3.0 0.00 1.06 1.05 92 997.0
20260831082403 82 330 0.0 1.0 0.00 1.06 1.05 92 996.8
20260831081404 82 335 1.0 2.0 0.00 1.06 1.05 92 996.9
20260831080905 81 317 1.0 2.0 0.00 1.06 1.05 93 996.9
20260831080403 81 355 1.0 2.0 0.00 1.06 1.05 93 997.0
20260831075904 81 333 1.0 2.0 0.00 1.06 1.05 94 997.0
20260831075404 81 322 0.0 0.0 0.00 1.06 1.05 94 996.9
20260831074904 81 318 0.0 0.0 0.00 1.06 1.05 95 997.0
20260831074404 80 314 0.0 0.0 0.00 1.06 1.05 95 997.0
20260831073904 80 314 0.0 0.0 0.01 1.06 1.05 95 997.0
20260831073404 80 334 0.0 2.0 0.01 1.06 1.05 95 997.2
20260831072904 80 325 1.0 2.0 0.01 1.06 1.05 96 997.2
20260831072404 80 323 0.0 2.0 0.01 1.06 1.05 96 997.3
20260831071904 80 325 0.0 2.0 0.01 1.06 1.05 96 997.2
20260831071404 80 18 1.0 2.0 0.01 1.06 1.05 97 997.1
20260831070904 80 349 0.0 1.0 0.01 1.06 1.05 97 997.0
20260831070404 80 66 3.0 6.0 0.01 1.06 1.05 96 997.0
20260831065903 80 356 1.0 3.0 0.01 1.06 1.05 97 997.0
20260831065404 80 333 0.0 0.0 0.01 1.06 1.05 96 997.0
20260831064405 79 328 1.0 3.0 0.05 1.06 1.05 96 997.3
20260831063904 79 27 2.0 3.0 0.12 1.05 1.04 96 997.4
20260831063404 80 10 1.0 3.0 0.21 1.05 1.04 95 997.6
20260831062903 80 353 2.0 6.0 0.27 1.05 1.04 95 997.7
20260831061904 81 321 0.0 0.0 0.48 1.05 1.04 97 997.7
20260831061404 81 322 0.0 2.0 0.64 1.05 1.04 97 997.7
20260831060904 81 307 0.0 2.0 0.79 1.05 1.04 97 997.7
20260831060404 80 323 0.0 2.0 0.87 1.05 1.04 97 997.7
20260831055904 80 271 0.0 2.0 0.92 1.05 1.04 97 997.7
20260831055404 80 268 0.0 1.0 0.94 1.05 1.04 97 997.7
20260831054403 80 300 0.0 1.0 0.95 1.01 1.00 97 997.9
20260831053904 80 338 0.0 0.0 0.87 0.93 0.92 97 998.0
20260831052904 80 330 0.0 1.0 0.73 0.78 0.77 96 998.2
20260831051904 80 296 0.0 2.0 0.52 0.57 0.56 96 998.5
20260831051404 80 38 1.0 5.0 0.37 0.41 0.40 95 998.6
20260831050904 81 0 2.0 5.0 0.22 0.26 0.25 93 998.6
20260831050403 82 32 3.0 6.0 0.14 0.18 0.17 93 998.7
20260831045404 83 31 0.0 2.0 0.08 0.11 0.10 93 998.5
20260831044404 83 37 2.0 6.0 0.05 0.06 0.05 91 998.5
20260831043904 84 61 2.0 3.0 0.05 0.06 0.05 91 998.5
20260831043404 84 24 0.0 1.0 0.04 0.05 0.04 91 998.6
20260831042904 84 275 0.0 1.0 0.04 0.05 0.04 92 998.6
20260831042404 84 55 1.0 3.0 0.04 0.05 0.04 91 998.6
20260831040904 85 351 0.0 0.0 0.03 0.04 0.03 90 998.8
20260831040403 85 47 0.0 2.0 0.03 0.04 0.03 89 998.7
20260831035904 86 46 0.0 3.0 0.03 0.04 0.03 86 998.7
20260831035404 87 8 0.0 3.0 0.02 0.03 0.02 84 998.7
20260831034904 87 325 0.0 3.0 0.01 0.02 0.01 84 998.8
20260831034404 87 297 0.0 5.0 0.00 0.01 0.00 82 998.8
20260831033904 88 324 1.0 3.0 0.00 0.01 0.00 81 998.9
20260831033404 88 296 0.0 2.0 0.00 0.01 0.00 81 998.9
20260831032905 88 275 1.0 2.0 0.00 0.01 0.00 81 998.9
20260831032404 88 261 1.0 2.0 0.00 0.01 0.00 81 999.0
20260831031904 88 284 1.0 3.0 0.00 0.01 0.00 81 999.0
20260831031404 88 315 0.0 3.0 0.00 0.01 0.00 81 999.0
20260831030904 88 276 0.0 2.0 0.00 0.01 0.00 82 999.0
20260831030404 87 236 0.0 3.0 0.00 0.01 0.00 82 999.1
20260831025904 87 339 0.0 3.0 0.00 0.01 0.00 83 999.1
20260831025404 87 62 1.0 5.0 0.00 0.01 0.00 83 999.1
20260831024904 87 272 2.0 5.0 0.00 0.01 0.00 82 999.1
20260831023904 86 42 2.0 3.0 0.00 0.01 0.00 82 999.1
20260831023404 87 53 2.0 3.0 0.00 0.01 0.00 82 999.1
20260831022404 86 355 0.0 3.0 0.00 0.01 0.00 83 999.1
20260831021904 86 40 1.0 3.0 0.00 0.01 0.00 83 999.1
20260831021404 86 8 1.0 3.0 0.00 0.01 0.00 83 999.1
20260831020904 86 351 1.0 3.0 0.00 0.01 0.00 83 999.1
20260831020404 85 330 0.0 2.0 0.00 0.01 0.00 84 999.0
20260831015904 85 27 1.0 3.0 0.00 0.01 0.00 85 998.9
20260831015404 85 343 1.0 3.0 0.00 0.01 0.00 85 999.0
20260831014904 85 341 2.0 3.0 0.00 0.01 0.00 84 998.9
20260831014404 85 21 1.0 3.0 0.00 0.01 0.00 84 998.9
20260831013903 85 22 1.0 3.0 0.00 0.01 0.00 84 999.0
20260831013404 85 24 1.0 3.0 0.00 0.01 0.00 84 999.0
20260831012904 85 317 0.0 3.0 0.00 0.01 0.00 85 999.0
20260831012404 85 307 0.0 2.0 0.00 0.01 0.00 85 999.0
20260831011904 85 324 0.0 2.0 0.00 0.01 0.00 85 999.0
20260831011404 84 283 0.0 1.0 0.00 0.01 0.00 86 999.0
20260831010904 84 253 0.0 3.0 0.00 0.01 0.00 86 999.1
20260831010404 84 341 2.0 3.0 0.00 0.01 0.00 86 999.2